Regional Weather Roundup
Issued by NWS Jackson, KY

Home | Current Version | Previous Version | Graphics & Text | Print | Product List | Glossary On
Versions: 1 2 3 4 5 6 7 8 9 10 11 12 13 14 15 16 17 18 19 20 21 22 23 24 25 26 27 28 29 30 31 32 33 34 35 36 37 38 39 40 41 42 43 44 45 46 47 48 49 50
000
ASUS43 KJKL 011005
RWRJKL

EAST KENTUCKY HOURLY WEATHER ROUNDUP
NATIONAL WEATHER SERVICE JACKSON KY
500 AM EST SUN FEB 01 2015

NOTE: "FAIR" INDICATES FEW OR NO CLOUDS BELOW 12,000 FEET WITH
NO SIGNIFICANT WEATHER AND/OR OBSTRUCTIONS TO VISIBILITY.

* THESE REPORTS ARE NOT UNDER NWS QUALITY CONTROL AND MAY NOT
  REPORT WEATHER SUCH AS PRECIPITATION AND FOG.

KYZ079-080-083-085-087-088-110-112-115-119-120-011100
...EASTERN KENTUCKY...

CITY           SKY/WX    TMP DP  RH WIND       PRES   REMARKS
JACKSON        CLOUDY    35  13  40 CALM      30.17R
LONDON         CLOUDY    37  20  50 CALM      30.15F
SOMERSET*      CLOUDY    36  18  48 SE3       30.15F
MONTICELLO*    CLOUDY    43  12  28 SE13      30.13F
MIDDLESBORO*   CLOUDY    36  24  62 CALM      30.19S
HARLAN APT*    CLOUDY    34  23  64 E9        30.17S WCI  26
BLACK MTN*       N/A     36   1  23 S8          N/A  WCI  29
PIKEVILLE APT* MOCLDY    34  18  51 SE3       30.17R
BIG SANDY*     CLOUDY    34  19  55 CALM      30.18R
MOREHEAD APT*  CLOUDY    36  18  48 VRB5      30.18F WCI  32
$$

KYZ035-036-041-042-044-050-067-078-099-011100
...CENTRAL KENTUCKY...

CITY           SKY/WX    TMP DP  RH WIND       PRES   REMARKS
MT STERLING*   CLOUDY    36  19  51 S5        30.18S WCI  32
FLEMING/MASON* CLOUDY    33  23  69 SE3       30.18R
DANVILLE*      CLOUDY    34  23  64 CALM      30.13F
RICHMOND*      CLOUDY    34  19  55 SE6       30.14F WCI  29
LEXINGTON      CLOUDY    37  17  44 S10       30.13F WCI  30
FRANKFORT      CLOUDY    35  23  61 SE8       30.10F WCI  29
$$

KYZ091>093-OHZ055-061-077-WVZ005-015-034-035-042-011100
...SOUTHERN OHIO/WEST VIRGINIA...

CITY           SKY/WX    TMP DP  RH WIND       PRES   REMARKS
COVINGTON      CLOUDY    35  25  66 SE3       30.11F
COLUMBUS       FRZ RAIN  31  30  96 SE5       30.16S FOG     WCI  26
DAYTON         CLOUDY    33  31  92 S7        30.13S FOG     WCI  27
WILMINGTON     CLOUDY    32  28  85 SE3       30.13S
HUNTINGTON     CLOUDY    31  23  72 CALM      30.19R
CHARLESTON     CLOUDY    30  23  75 CALM      30.19S
PINEVILLE*     CLOUDY    32  25  76 MISG      30.21F
BECKLEY        CLOUDY    31  15  52 S3        30.15F
BLUEFIELD      CLOUDY    35   7  31 CALM      30.15S
$$

VAZ002-007-008-TNZ017-027-036-066-071-011100
...SOUTHWEST VIRGINIA/EAST TENNESSEE...

CITY           SKY/WX    TMP DP  RH WIND       PRES   REMARKS
WISE*          CLOUDY    32  18  55 SW6       30.15R WCI  26
JONESVILLE*    CLOUDY    32  25  74 CALM      30.22R
ABINGDON*      CLOUDY    36  16  43 CALM      30.16S
BRISTOL        CLOUDY    34  22  61 N3        30.18S
KNOXVILLE      CLOUDY    35  27  72 NE6       30.17F WCI  30
OAK RIDGE      CLOUDY    37  26  64 CALM      30.18F
CROSSVILLE     CLOUDY    43  17  35 S10G20    30.11F
NASHVILLE      CLOUDY    48  20  32 S10       30.06F
$$

...KEY TO REMARKS...
VSB - VISIBILITY IN MILES
WCI - WIND CHILL INDEX
HX  - HEAT INDEX

$$



USA.gov is the U.S. government's official web portal to all federal, state and local government web resources and services.